Tracking 29528 objects as of 13-Sep-2024
HD Live streaming from Space Station
objects crossing your sky now

INTELSAT 706

Track INTELSAT 706 now!
INTELSAT 706 is classified as:


NORAD ID: 23571
Int'l Code: 1995-023A
Perigee: 36,137.9 km
Apogee: 36,141.5 km
Inclination: 9.6 °
Period: 1,453.8 minutes
Semi major axis: 42510 km
RCS: 22.4876 m2 (large)
Launch date: May 17, 1995
Source: International Telecommunications Satellite Organization (ITSO)
Launch site: FRENCH GUIANA (FRGUI)

42 C-band, 36 Ku-band; broadcasting, business services, direct-to-home TV broadcasting, telecommunications, VSATnetworks Atlantic Ocean region.
Your satellite tracking list
Your tracking list is empty




NASA's NSSDC Master Catalog

Two Line Element Set (TLE):
1 23571U 95023A   24256.85551617 -.00000100  00000-0  00000+0 0  9995
2 23571   9.6283  50.1392 0000425 130.3235  43.6467  0.99050214106924
Source of the keplerian elements: AFSPC